Location: Aalen
(48.8330°N, 10.1000°E)
Time: 02:25:37
(UTC+02:00)

METEOR M2 - Pass Details

Date: 16 April 2024
Orbit: 817 x 827 km, 98.4° (Epoch: 19 May)

Event Time Altitude Azimuth Distance (km) Brightness Sun altitude
Rises 05:45:40 0° 26° (NNE) 3,365 ? -7.1°
Reaches altitude 10° 05:48:41 10° 43° (NE) 2,425 ? -6.6°
Maximum altitude 05:52:34 20° 90° (E) 1,814 ? -6.0°
Drops below altitude 10° 05:56:25 10° 136° (SE) 2,409 ? -5.5°
Sets 05:59:23 0° 153° (SSE) 3,334 ? -5.0°
